Date,TemperatureHighF,TemperatureAvgF,TemperatureLowF,DewpointHighF,DewpointAvgF,DewpointLowF,HumidityHigh,HumidityAvg,HumidityLow,PressureMaxIn,PressureMinIn,WindSpeedMaxMPH,WindSpeedAvgMPH,GustSpeedMaxMPH,PrecipitationSumIn
2013-9-1,79.1,71.8,68.1,73.0,70.1,67.1,100,95,81,30.03,29.94,7,0,18,0.11
2013-9-2,75.3,70.4,66.3,71.8,69.0,66.3,100,95,87,30.05,29.95,4,1,8,0.00
2013-9-3,77.7,71.1,65.0,70.2,68.1,65.0,100,91,68,30.06,29.96,5,1,12,0.47
2013-9-4,77.9,70.4,63.1,70.0,67.2,63.1,100,90,74,30.18,30.06,2,0,7,0.00
2013-9-5,78.7,69.8,62.8,70.8,66.6,62.8,100,91,68,30.21,30.15,1,0,6,0.00
2013-9-6,78.3,69.8,63.2,67.6,65.4,63.1,100,87,66,30.22,30.14,4,0,7,0.00
2013-9-7,76.1,69.9,63.5,68.8,64.9,61.9,96,85,70,30.19,30.08,3,0,7,0.00
2013-9-8,76.9,70.5,62.4,70.2,66.3,62.4,100,87,70,30.11,30.04,3,0,8,0.00
2013-9-9,78.2,71.8,65.2,70.1,66.9,64.0,98,85,72,30.20,30.09,4,1,8,0.00
2013-9-10,79.9,72.8,65.7,69.7,67.3,63.6,94,83,69,30.29,30.20,3,1,8,0.00
2013-9-11,78.6,71.9,63.8,70.5,67.0,63.8,100,85,69,30.29,30.18,0,0,0,0.00
2013-9-12,75.0,68.6,64.1,70.9,67.7,64.1,100,97,87,30.19,30.00,3,0,8,0.03
2013-9-13,71.8,66.9,59.5,68.3,61.4,53.9,100,84,60,30.01,29.92,0,0,0,0.00
2013-9-14,72.5,60.9,50.6,59.9,54.6,50.6,100,82,56,30.12,29.97,3,0,9,0.00
2013-9-15,73.7,66.7,60.3,63.9,60.5,56.3,94,81,66,30.22,30.13,5,2,12,0.00
2013-9-16,75.7,68.7,62.1,65.6,61.7,55.6,100,80,50,30.21,30.15,3,0,8,0.00
2013-9-17,69.5,65.6,62.5,61.6,59.3,55.8,89,80,72,30.27,30.18,7,2,13,0.00
2013-9-18,67.5,63.5,60.0,62.3,58.4,53.4,98,84,75,30.28,30.19,8,1,10,0.00
2013-9-19,74.3,65.3,57.8,66.4,61.8,57.5,100,89,74,30.24,30.13,0,0,5,0.00
2013-9-20,77.6,68.5,60.5,67.0,63.5,60.5,100,85,68,30.15,30.00,4,0,9,0.00
2013-9-21,69.7,64.4,59.6,65.3,63.3,59.6,100,97,85,30.01,29.79,6,4,11,1.21
2013-9-22,68.5,60.2,53.8,62.4,56.4,51.1,100,89,54,29.95,29.84,2,0,8,0.00
2013-9-23,69.3,62.3,56.5,59.6,57.4,55.1,100,85,69,30.08,29.96,5,1,9,0.00
2013-9-24,66.3,62.6,58.8,62.8,59.9,55.6,97,91,85,30.09,29.97,4,1,9,0.00
2013-9-25,63.4,60.9,59.1,63.1,60.5,59.1,100,99,94,29.96,29.89,5,1,8,1.81
2013-9-26,70.2,62.7,57.8,64.4,60.8,57.8,100,94,77,30.07,29.93,3,0,8,0.00
2013-9-27,70.8,62.5,55.8,62.6,57.3,52.2,99,84,60,30.18,30.08,1,0,5,0.00
2013-9-28,68.8,61.4,54.2,59.4,56.1,52.4,94,83,71,30.25,30.15,4,1,8,0.00
2013-9-29,64.5,58.6,52.1,58.3,54.3,49.8,95,86,75,30.19,30.08,3,0,7,0.00
2013-9-30,67.9,60.4,53.2,59.6,56.3,52.8,100,87,72,30.13,30.05,3,0,8,0.00